AIC2105 VABB-WSSS

Flight info

Callsign AIC2105
Flight time N/A
Altitude 37000
Route VEVAK2A AGELA N571 VATMO/N0438F390 N571 GUNIP M630 NIREN Y511 TOPOR A464 ARAMA ARAMA1A
Aircraft A21N/M-SDE2E3FGHIRWXY/LB1

Departure

Time 2026-04-30 18:47
Airport Chhatrapati Shivaji Maharaj International Airport (VABB)

Arrival

Time N/A
Airport Singapore Changi Airport (WSSS)
Time Latitude Longitude Altitude Speed Heading
2026-04-30 18:25 19.09602 72.87233 55 ft 0 kts 133°
2026-04-30 18:27 19.09603 72.87232 57 ft 0 kts 133°
2026-04-30 18:27 19.09602 72.87233 55 ft 0 kts 133°
2026-04-30 18:37 19.09609 72.87225 53 ft 4 kts 133°
2026-04-30 18:37 19.09628 72.87205 53 ft 4 kts 134°
2026-04-30 18:38 19.09646 72.87185 53 ft 2 kts 134°
2026-04-30 18:38 19.09663 72.87171 55 ft 4 kts 172°
2026-04-30 18:38 19.09686 72.87177 55 ft 4 kts 214°
2026-04-30 18:38 19.09698 72.87186 55 ft 0 kts 224°
2026-04-30 18:41 19.09690 72.87179 55 ft 7 kts 224°
2026-04-30 18:41 19.09640 72.87127 53 ft 12 kts 224°
2026-04-30 18:41 19.09574 72.87058 53 ft 15 kts 225°
2026-04-30 18:41 19.09567 72.86948 55 ft 17 kts 239°
2026-04-30 18:42 19.09484 72.86846 52 ft 20 kts 229°
2026-04-30 18:42 19.09306 72.86633 53 ft 16 kts 209°
2026-04-30 18:42 19.09205 72.86679 55 ft 19 kts 134°
2026-04-30 18:45 19.09049 72.87235 52 ft 9 kts 89°
2026-04-30 18:45 19.09049 72.87326 55 ft 14 kts 90°
2026-04-30 18:45 19.09038 72.87430 55 ft 14 kts 128°
2026-04-30 18:46 19.08945 72.87450 52 ft 11 kts 192°
2026-04-30 18:46 19.08882 72.87393 50 ft 15 kts 253°
2026-04-30 18:46 19.08882 72.87305 56 ft 29 kts 270°
2026-04-30 18:46 19.08871 72.86770 57 ft 114 kts 269°
2026-04-30 18:47 19.08854 72.85683 50 ft 178 kts 269°
2026-04-30 18:47 19.08854 72.84386 836 ft 172 kts 270°
2026-04-30 18:47 19.08858 72.83101 1638 ft 182 kts 266°
2026-04-30 18:47 19.08815 72.81690 2336 ft 204 kts 267°
2026-04-30 18:48 19.08775 72.80070 2921 ft 236 kts 268°
2026-04-30 18:48 19.08739 72.78254 3654 ft 256 kts 268°
2026-04-30 18:48 19.08699 72.76344 4628 ft 263 kts 269°
2026-04-30 18:48 19.08656 72.74397 5702 ft 267 kts 268°
2026-04-30 18:49 19.08234 72.72482 6700 ft 273 kts 247°
2026-04-30 18:49 19.07091 72.70884 7644 ft 284 kts 224°
2026-04-30 18:49 19.05342 72.69862 8347 ft 295 kts 199°
2026-04-30 18:49 19.03272 72.69729 8777 ft 305 kts 173°
2026-04-30 18:50 19.01304 72.70590 8890 ft 312 kts 146°
2026-04-30 18:50 18.99698 72.72143 8914 ft 314 kts 135°
2026-04-30 18:50 18.98139 72.73751 8894 ft 313 kts 143°
2026-04-30 18:50 18.96215 72.74737 8880 ft 307 kts 171°
2026-04-30 18:51 18.94106 72.74894 8885 ft 303 kts 185°
2026-04-30 18:51 18.92003 72.74791 8883 ft 302 kts 186°
2026-04-30 18:51 18.89904 72.74686 8881 ft 302 kts 186°
2026-04-30 18:51 18.87802 72.74600 8882 ft 302 kts 185°
2026-04-30 18:52 18.85698 72.74528 8884 ft 302 kts 185°
2026-04-30 18:52 18.83588 72.74463 8882 ft 303 kts 185°
2026-04-30 18:52 18.81483 72.74400 8884 ft 303 kts 185°
2026-04-30 18:52 18.79405 72.74342 8880 ft 303 kts 185°
2026-04-30 18:53 18.77296 72.74453 8884 ft 306 kts 171°
2026-04-30 18:53 18.75245 72.75093 9530 ft 310 kts 164°
2026-04-30 18:53 18.73187 72.75829 10393 ft 316 kts 163°
2026-04-30 18:53 18.71059 72.76589 11083 ft 329 kts 163°
2026-04-30 18:54 18.68839 72.77368 11727 ft 343 kts 163°
2026-04-30 18:54 18.66545 72.78167 12516 ft 350 kts 163°
2026-04-30 18:54 18.64214 72.78979 13394 ft 355 kts 163°
2026-04-30 18:54 18.61843 72.79804 14231 ft 361 kts 163°
2026-04-30 18:55 18.59443 72.80637 15060 ft 367 kts 163°
2026-04-30 18:55 18.54509 72.82351 16618 ft 379 kts 162°
2026-04-30 18:55 18.51991 72.83226 17382 ft 384 kts 162°
2026-04-30 18:56 18.46832 72.85015 18838 ft 396 kts 162°
2026-04-30 18:56 18.44197 72.85928 19551 ft 401 kts 162°
2026-04-30 18:56 18.41533 72.86851 20266 ft 405 kts 161°
2026-04-30 18:57 18.36113 72.88725 21656 ft 414 kts 162°
2026-04-30 18:57 18.33356 72.89678 22318 ft 419 kts 162°
2026-04-30 18:57 18.30605 72.90631 22979 ft 423 kts 162°
2026-04-30 18:58 18.24955 72.92589 24232 ft 432 kts 162°
2026-04-30 18:58 18.22083 72.93582 24826 ft 437 kts 162°
2026-04-30 18:58 18.19181 72.94589 25415 ft 440 kts 162°
2026-04-30 18:59 18.13312 72.96622 26492 ft 448 kts 162°
2026-04-30 19:00 18.05520 73.01911 27876 ft 455 kts 129°
2026-04-30 19:00 18.03472 73.04454 28301 ft 458 kts 128°
2026-04-30 19:00 17.99337 73.09608 29102 ft 464 kts 129°
2026-04-30 19:01 17.95116 73.14779 29957 ft 467 kts 129°
2026-04-30 19:01 17.92989 73.17371 30335 ft 470 kts 129°
2026-04-30 19:02 17.88718 73.22566 31035 ft 475 kts 129°
2026-04-30 19:02 17.84379 73.27847 31723 ft 480 kts 129°
2026-04-30 19:03 17.79998 73.33182 32442 ft 483 kts 130°
2026-04-30 19:03 17.75620 73.38503 33298 ft 481 kts 130°
2026-04-30 19:04 17.71981 73.42920 33976 ft 480 kts 130°
2026-04-30 19:04 17.67624 73.48215 34767 ft 478 kts 130°
2026-04-30 19:05 17.63284 73.53478 35530 ft 476 kts 130°
2026-04-30 19:05 17.58957 73.58724 36174 ft 475 kts 130°
2026-04-30 19:06 17.54640 73.63963 36823 ft 474 kts 130°
2026-04-30 19:06 17.52484 73.66572 36961 ft 471 kts 130°
2026-04-30 19:06 17.48258 73.71686 36956 ft 465 kts 130°
2026-04-30 19:07 17.41926 73.79347 36950 ft 463 kts 130°
2026-04-30 19:08 17.38415 73.84954 36951 ft 461 kts 115°
2026-04-30 19:08 17.35585 73.90977 36947 ft 461 kts 114°
2026-04-30 19:09 17.31320 73.99993 36950 ft 461 kts 115°
2026-04-30 19:09 17.28455 74.06006 36949 ft 462 kts 115°
2026-04-30 19:10 17.22704 74.18040 36957 ft 462 kts 115°
2026-04-30 19:11 17.18411 74.27032 36967 ft 462 kts 115°
2026-04-30 19:12 17.15534 74.33042 36969 ft 462 kts 115°
2026-04-30 19:12 17.12658 74.39048 36971 ft 462 kts 115°
2026-04-30 19:13 17.06901 74.51052 36969 ft 462 kts 115°
2026-04-30 19:14 17.04013 74.57052 36972 ft 462 kts 115°
2026-04-30 19:14 17.01125 74.63060 36969 ft 462 kts 115°
2026-04-30 19:15 16.98229 74.69067 36962 ft 462 kts 115°
2026-04-30 19:15 16.93910 74.78032 36960 ft 462 kts 115°
2026-04-30 19:16 16.91014 74.84027 36960 ft 462 kts 115°
2026-04-30 19:17 16.86674 74.93015 36960 ft 462 kts 115°
2026-04-30 19:17 16.82322 75.01999 36961 ft 462 kts 115°
2026-04-30 19:18 16.77975 75.10968 36961 ft 462 kts 115°
2026-04-30 19:19 16.75075 75.16946 36960 ft 462 kts 115°
2026-04-30 19:19 16.70722 75.25912 36961 ft 462 kts 115°
2026-04-30 19:20 16.67816 75.31888 36966 ft 461 kts 115°
2026-04-30 19:21 16.63453 75.40851 36990 ft 462 kts 115°
2026-04-30 19:22 16.57782 75.52813 36991 ft 462 kts 114°
2026-04-30 19:23 16.49410 75.70898 36990 ft 461 kts 114°
2026-04-30 19:24 16.45220 75.79928 36986 ft 462 kts 114°
2026-04-30 19:25 16.38219 75.94994 36960 ft 462 kts 114°
2026-04-30 19:26 16.32583 76.07024 36961 ft 462 kts 114°
2026-04-30 19:27 16.28353 76.15993 36960 ft 462 kts 114°
2026-04-30 19:28 16.24102 76.25001 36960 ft 462 kts 114°
2026-04-30 19:29 16.18426 76.37006 36960 ft 462 kts 114°
2026-04-30 19:30 16.12739 76.49005 36960 ft 462 kts 114°
2026-04-30 19:31 16.07048 76.61005 36960 ft 463 kts 114°
2026-04-30 19:31 16.02774 76.69999 36960 ft 463 kts 114°
2026-04-30 19:32 15.99930 76.75975 36960 ft 464 kts 114°
2026-04-30 19:32 15.97076 76.81972 36960 ft 461 kts 114°
2026-04-30 19:33 15.94227 76.87948 36952 ft 461 kts 114°
2026-04-30 19:33 15.91381 76.93921 36951 ft 461 kts 114°
2026-04-30 19:34 15.88529 76.99896 36950 ft 461 kts 114°
2026-04-30 19:35 15.84251 77.08841 36964 ft 461 kts 114°
2026-04-30 19:35 15.81399 77.14805 36970 ft 461 kts 114°
2026-04-30 19:36 15.78541 77.20781 36970 ft 462 kts 114°
2026-04-30 19:36 15.74246 77.29743 36970 ft 462 kts 114°
2026-04-30 19:37 15.71382 77.35718 36962 ft 462 kts 114°
2026-04-30 19:37 15.68551 77.41659 36960 ft 462 kts 114°
2026-04-30 19:38 15.65703 77.47654 36960 ft 463 kts 114°
2026-04-30 19:38 15.62851 77.53638 36960 ft 463 kts 114°
2026-04-30 19:39 15.59992 77.59634 36960 ft 464 kts 114°
2026-04-30 19:39 15.57133 77.65627 36961 ft 464 kts 114°
2026-04-30 19:40 15.54268 77.71619 36966 ft 464 kts 114°
2026-04-30 19:40 15.51403 77.77613 36941 ft 464 kts 114°
2026-04-30 19:41 15.48538 77.83599 36931 ft 464 kts 114°
2026-04-30 19:41 15.45667 77.89592 36932 ft 464 kts 114°
2026-04-30 19:42 15.42801 77.95579 36931 ft 464 kts 114°
2026-04-30 19:42 15.39945 78.01530 36929 ft 463 kts 114°
2026-04-30 19:43 15.37071 78.07515 36929 ft 464 kts 114°
2026-04-30 19:44 15.32723 78.16473 36920 ft 464 kts 115°
2026-04-30 19:44 15.29804 78.22433 36910 ft 463 kts 115°
2026-04-30 19:45 15.26893 78.28381 36913 ft 463 kts 115°
2026-04-30 19:45 15.23998 78.34293 36917 ft 463 kts 115°
2026-04-30 19:46 15.21086 78.40239 36920 ft 463 kts 115°
2026-04-30 19:46 15.18170 78.46188 36909 ft 463 kts 115°
2026-04-30 19:47 15.15261 78.52121 36893 ft 463 kts 115°
2026-04-30 19:47 15.12344 78.58060 36889 ft 463 kts 115°
2026-04-30 19:48 15.09429 78.63995 36891 ft 462 kts 115°
2026-04-30 19:48 15.06515 78.69921 36889 ft 462 kts 115°
2026-04-30 19:49 15.03601 78.75844 36881 ft 462 kts 115°
2026-04-30 19:49 14.99229 78.84722 36880 ft 461 kts 115°
2026-04-30 19:50 14.96809 78.89631 36879 ft 461 kts 115°
2026-04-30 19:50 14.93419 78.96498 36877 ft 461 kts 115°
2026-04-30 19:51 14.90505 79.02402 36872 ft 461 kts 115°
2026-04-30 19:51 14.87586 79.08304 36872 ft 461 kts 115°
2026-04-30 19:52 14.85162 79.13206 36870 ft 461 kts 115°
2026-04-30 19:52 14.82242 79.19106 36869 ft 461 kts 115°
2026-04-30 19:53 14.79323 79.24997 36863 ft 460 kts 115°
2026-04-30 19:53 14.76404 79.30886 36861 ft 460 kts 115°
2026-04-30 19:54 14.73481 79.36772 36861 ft 460 kts 115°
2026-04-30 19:54 14.70564 79.42649 36861 ft 460 kts 115°
2026-04-30 19:55 14.67645 79.48523 36852 ft 460 kts 115°
2026-04-30 19:55 14.64723 79.54404 36851 ft 459 kts 115°
2026-04-30 19:56 14.61802 79.60274 36838 ft 459 kts 115°
2026-04-30 19:56 14.58899 79.66101 36820 ft 459 kts 115°
2026-04-30 19:57 14.55977 79.71963 36818 ft 459 kts 115°
2026-04-30 19:57 14.53058 79.77821 36823 ft 458 kts 115°
2026-04-30 19:58 14.50138 79.83666 36822 ft 458 kts 115°
2026-04-30 19:58 14.47215 79.89513 36824 ft 458 kts 115°
2026-04-30 19:59 14.44296 79.95354 36823 ft 458 kts 115°
2026-04-30 20:00 14.39916 80.04109 36823 ft 458 kts 115°
2026-04-30 20:00 14.36988 80.09954 36822 ft 458 kts 115°
2026-04-30 20:01 14.32619 80.18665 36822 ft 458 kts 115°
2026-04-30 20:01 14.29694 80.24498 36821 ft 458 kts 115°
2026-04-30 20:02 14.25302 80.33242 36823 ft 458 kts 115°
2026-04-30 20:03 14.20910 80.41977 36823 ft 458 kts 115°
2026-04-30 20:03 14.17976 80.47803 36821 ft 458 kts 115°
2026-04-30 20:04 14.15044 80.53628 36822 ft 458 kts 115°
2026-04-30 20:05 14.10639 80.62367 36820 ft 459 kts 115°
2026-04-30 20:05 14.06222 80.71114 36838 ft 459 kts 115°
2026-04-30 20:06 14.03273 80.76955 36819 ft 459 kts 115°
2026-04-30 20:06 14.00336 80.82764 36817 ft 460 kts 115°
2026-04-30 20:07 13.97450 80.88647 36817 ft 460 kts 114°
2026-04-30 20:08 13.93167 80.97495 36820 ft 460 kts 115°
2026-04-30 20:08 13.90299 81.03388 36820 ft 461 kts 115°
2026-04-30 20:09 13.87424 81.09296 36822 ft 462 kts 115°
2026-04-30 20:09 13.83104 81.18155 36820 ft 462 kts 115°
2026-04-30 20:10 13.78792 81.26997 36817 ft 463 kts 115°
2026-04-30 20:11 13.74451 81.35878 36815 ft 463 kts 115°
2026-04-30 20:11 13.71553 81.41806 36818 ft 464 kts 115°
2026-04-30 20:12 13.67202 81.50715 36818 ft 464 kts 115°
2026-04-30 20:13 13.64305 81.56652 36820 ft 464 kts 115°
2026-04-30 20:13 13.61426 81.62546 36819 ft 465 kts 115°
2026-04-30 20:14 13.58523 81.68487 36820 ft 465 kts 115°
2026-04-30 20:14 13.55613 81.74433 36817 ft 465 kts 115°
2026-04-30 20:15 13.52702 81.80380 36821 ft 465 kts 115°
2026-04-30 20:15 13.49792 81.86322 36818 ft 465 kts 115°
2026-04-30 20:16 13.46881 81.92257 36822 ft 465 kts 115°
2026-04-30 20:16 13.43969 81.98197 36818 ft 465 kts 115°
2026-04-30 20:17 13.41059 82.04125 36823 ft 465 kts 115°
2026-04-30 20:17 13.38163 82.10018 36818 ft 465 kts 115°
2026-04-30 20:18 13.35248 82.15945 36819 ft 465 kts 115°
2026-04-30 20:18 13.32329 82.21878 36818 ft 465 kts 115°
2026-04-30 20:19 13.29411 82.27806 36819 ft 465 kts 115°
2026-04-30 20:19 13.26488 82.33738 36819 ft 465 kts 115°
2026-04-30 20:20 13.23565 82.39667 36819 ft 465 kts 116°
2026-04-30 20:20 13.20638 82.45597 36817 ft 466 kts 116°
2026-04-30 20:21 13.17711 82.51525 36822 ft 466 kts 116°
2026-04-30 20:21 13.14781 82.57452 36823 ft 466 kts 116°
2026-04-30 20:22 13.11870 82.63343 36819 ft 466 kts 116°
2026-04-30 20:22 13.08936 82.69271 36820 ft 465 kts 116°
2026-04-30 20:23 13.06006 82.75190 36825 ft 465 kts 116°
2026-04-30 20:23 13.03075 82.81106 36838 ft 465 kts 116°
2026-04-30 20:24 13.00139 82.87027 36829 ft 465 kts 116°
2026-04-30 20:24 12.97205 82.92938 36834 ft 465 kts 116°
2026-04-30 20:25 12.92794 83.01820 36828 ft 466 kts 116°
2026-04-30 20:26 12.88375 83.10713 36832 ft 466 kts 117°
2026-04-30 20:26 12.83978 83.19546 36831 ft 466 kts 117°
2026-04-30 20:27 12.78085 83.31374 36817 ft 466 kts 117°
2026-04-30 20:28 12.72178 83.43214 36819 ft 466 kts 117°
2026-04-30 20:30 12.64799 83.58028 36821 ft 467 kts 116°
2026-04-30 20:31 12.56234 83.75892 36823 ft 467 kts 117°
2026-04-30 20:32 12.49058 83.90786 36817 ft 466 kts 117°
2026-04-30 20:33 12.44743 83.99721 36823 ft 467 kts 117°
2026-04-30 20:34 12.40429 84.08655 36825 ft 467 kts 117°
2026-04-30 20:35 12.36108 84.17597 36818 ft 467 kts 117°
2026-04-30 20:35 12.31799 84.26495 36816 ft 467 kts 117°
2026-04-30 20:36 12.28913 84.32457 36817 ft 467 kts 117°
2026-04-30 20:37 12.24587 84.41388 36819 ft 467 kts 117°
2026-04-30 20:37 12.21703 84.47338 36821 ft 466 kts 117°
2026-04-30 20:38 12.18819 84.53278 36823 ft 466 kts 117°
2026-04-30 20:38 12.15936 84.59216 36827 ft 466 kts 117°
2026-04-30 20:39 12.12092 84.67118 36823 ft 466 kts 117°
2026-04-30 20:40 12.07758 84.76023 36825 ft 466 kts 117°
2026-04-30 20:40 12.04870 84.81952 36819 ft 466 kts 117°
2026-04-30 20:41 12.00538 84.90843 36823 ft 466 kts 118°
2026-04-30 20:41 11.97651 84.96762 36823 ft 464 kts 118°
2026-04-30 20:42 11.94775 85.02657 36820 ft 463 kts 118°
2026-04-30 20:43 11.90481 85.11450 36821 ft 463 kts 118°
2026-04-30 20:43 11.87606 85.17332 36814 ft 463 kts 118°
2026-04-30 20:44 11.83292 85.26152 36817 ft 463 kts 118°
2026-04-30 20:45 11.77528 85.37921 36818 ft 463 kts 118°
2026-04-30 20:45 11.74645 85.43805 36822 ft 463 kts 118°
2026-04-30 20:46 11.68877 85.55556 36829 ft 463 kts 118°
2026-04-30 20:47 11.64566 85.64333 36833 ft 463 kts 118°
2026-04-30 20:48 11.60227 85.73152 36842 ft 463 kts 118°
2026-04-30 20:48 11.57338 85.79023 36857 ft 463 kts 118°
2026-04-30 20:49 11.54445 85.84901 36860 ft 463 kts 118°
2026-04-30 20:50 11.50106 85.93706 36859 ft 463 kts 118°
2026-04-30 20:50 11.47213 85.99576 36860 ft 463 kts 118°
2026-04-30 20:51 11.44325 86.05432 36860 ft 462 kts 118°
2026-04-30 20:51 11.40009 86.14176 36861 ft 461 kts 118°
2026-04-30 20:52 11.37120 86.20019 36861 ft 461 kts 118°
2026-04-30 20:53 11.32790 86.28776 36860 ft 461 kts 119°
2026-04-30 20:53 11.29901 86.34612 36861 ft 460 kts 119°
2026-04-30 20:54 11.25596 86.43306 36860 ft 460 kts 119°
2026-04-30 20:55 11.21270 86.52032 36861 ft 459 kts 119°
2026-04-30 20:55 11.18389 86.57840 36861 ft 459 kts 119°
2026-04-30 20:56 11.14068 86.66542 36859 ft 458 kts 119°
2026-04-30 20:57 11.09753 86.75230 36861 ft 458 kts 119°
2026-04-30 20:57 11.06872 86.81019 36861 ft 458 kts 119°
2026-04-30 20:58 11.02571 86.89663 36860 ft 458 kts 119°
2026-04-30 20:58 10.99692 86.95446 36861 ft 458 kts 119°
2026-04-30 20:59 10.95371 87.04120 36861 ft 458 kts 119°
2026-04-30 21:00 10.89610 87.15664 36861 ft 457 kts 119°
2026-04-30 21:01 10.85301 87.24293 36860 ft 456 kts 119°
2026-04-30 21:02 10.80991 87.32922 36860 ft 456 kts 119°
2026-04-30 21:02 10.78112 87.38676 36859 ft 456 kts 119°
2026-04-30 21:03 10.75232 87.44431 36861 ft 456 kts 119°
2026-04-30 21:03 10.72372 87.50149 36860 ft 456 kts 119°
2026-04-30 21:04 10.69494 87.55897 36861 ft 456 kts 119°
2026-04-30 21:04 10.65174 87.64511 36861 ft 456 kts 119°
2026-04-30 21:05 10.62293 87.70251 36860 ft 456 kts 119°
2026-04-30 21:05 10.59418 87.75982 36852 ft 452 kts 119°
2026-04-30 21:06 10.56584 87.81634 36849 ft 451 kts 119°
2026-04-30 21:06 10.53730 87.87311 36852 ft 451 kts 119°
2026-04-30 21:07 10.50875 87.92990 36851 ft 451 kts 119°
2026-04-30 21:07 10.48023 87.98657 36850 ft 450 kts 119°
2026-04-30 21:08 10.45172 88.04323 36850 ft 450 kts 119°
2026-04-30 21:08 10.42324 88.09982 36851 ft 450 kts 119°
2026-04-30 21:09 10.39475 88.15639 36850 ft 450 kts 119°
2026-04-30 21:09 10.36622 88.21300 36850 ft 450 kts 119°
2026-04-30 21:10 10.33769 88.26957 36850 ft 450 kts 119°
2026-04-30 21:10 10.30916 88.32610 36850 ft 450 kts 119°
2026-04-30 21:11 10.28062 88.38266 36851 ft 450 kts 119°
2026-04-30 21:11 10.25224 88.43883 36851 ft 450 kts 119°
2026-04-30 21:12 10.22364 88.49542 36851 ft 450 kts 119°
2026-04-30 21:12 10.19588 88.55235 36850 ft 451 kts 117°
2026-04-30 21:13 10.16943 88.61009 36850 ft 451 kts 117°
2026-04-30 21:13 10.14301 88.66779 36850 ft 451 kts 117°
2026-04-30 21:14 10.11654 88.72554 36851 ft 451 kts 117°
2026-04-30 21:14 10.09001 88.78336 36851 ft 451 kts 117°
2026-04-30 21:15 10.06348 88.84114 36851 ft 451 kts 117°
2026-04-30 21:15 10.03699 88.89885 36850 ft 451 kts 117°
2026-04-30 21:16 10.01060 88.95628 36850 ft 451 kts 117°
2026-04-30 21:16 9.98406 89.01400 36851 ft 451 kts 117°
2026-04-30 21:17 9.95763 89.07149 36850 ft 449 kts 117°
2026-04-30 21:17 9.93121 89.12890 36851 ft 449 kts 117°
2026-04-30 21:18 9.90477 89.18634 36850 ft 449 kts 117°
2026-04-30 21:18 9.87832 89.24375 36850 ft 449 kts 117°
2026-04-30 21:19 9.85186 89.30116 36851 ft 449 kts 117°
2026-04-30 21:19 9.82538 89.35856 36851 ft 449 kts 117°
2026-04-30 21:20 9.79889 89.41598 36851 ft 449 kts 117°
2026-04-30 21:20 9.77238 89.47342 36850 ft 449 kts 117°
2026-04-30 21:21 9.74587 89.53082 36850 ft 449 kts 117°
2026-04-30 21:22 9.70609 89.61688 36850 ft 449 kts 117°
2026-04-30 21:23 9.65316 89.73130 36850 ft 450 kts 117°
2026-04-30 21:23 9.61330 89.81739 36850 ft 450 kts 117°
2026-04-30 21:24 9.58670 89.87482 36850 ft 450 kts 117°
2026-04-30 21:24 9.56009 89.93222 36849 ft 450 kts 117°
2026-04-30 21:25 9.52035 90.01788 36841 ft 450 kts 117°
2026-04-30 21:26 9.48045 90.10385 36841 ft 449 kts 117°
2026-04-30 21:27 9.44048 90.18987 36841 ft 449 kts 117°
2026-04-30 21:27 9.41394 90.24698 36837 ft 448 kts 117°
2026-04-30 21:28 9.37857 90.32304 36836 ft 448 kts 117°
2026-04-30 21:29 9.33872 90.40865 36837 ft 447 kts 116°
2026-04-30 21:30 9.27236 90.55109 36840 ft 447 kts 116°
2026-04-30 21:31 9.20631 90.69270 36841 ft 446 kts 116°
2026-04-30 21:32 9.16655 90.77787 36840 ft 446 kts 116°
2026-04-30 21:32 9.14004 90.83455 36842 ft 445 kts 116°
2026-04-30 21:33 9.10034 90.91954 36849 ft 445 kts 116°
2026-04-30 21:34 9.07385 90.97614 36848 ft 445 kts 116°
2026-04-30 21:34 9.03412 91.06099 36850 ft 445 kts 116°
2026-04-30 21:35 9.00768 91.11753 36850 ft 445 kts 116°
2026-04-30 21:35 8.98137 91.17368 36850 ft 444 kts 116°
2026-04-30 21:36 8.95486 91.23019 36850 ft 444 kts 116°
2026-04-30 21:37 8.90194 91.34301 36851 ft 444 kts 116°
2026-04-30 21:37 8.87546 91.39941 36849 ft 444 kts 116°
2026-04-30 21:38 8.84904 91.45568 36850 ft 443 kts 116°
2026-04-30 21:38 8.82260 91.51194 36851 ft 443 kts 116°
2026-04-30 21:39 8.79615 91.56823 36850 ft 443 kts 116°
2026-04-30 21:39 8.76967 91.62449 36851 ft 443 kts 116°
2026-04-30 21:40 8.74322 91.68075 36851 ft 442 kts 116°
2026-04-30 21:40 8.71677 91.73692 36850 ft 442 kts 116°
2026-04-30 21:41 8.69050 91.79272 36850 ft 442 kts 116°
2026-04-30 21:41 8.66403 91.84889 36850 ft 442 kts 116°
2026-04-30 21:42 8.63758 91.90502 36851 ft 442 kts 116°
2026-04-30 21:42 8.61111 91.96113 36850 ft 442 kts 116°
2026-04-30 21:43 8.58514 92.01738 36851 ft 442 kts 115°
2026-04-30 21:43 8.56010 92.07400 36850 ft 441 kts 115°
2026-04-30 21:44 8.53507 92.13054 36850 ft 441 kts 115°
2026-04-30 21:44 8.51000 92.18709 36850 ft 441 kts 115°
2026-04-30 21:45 8.48496 92.24361 36843 ft 441 kts 115°
2026-04-30 21:45 8.45985 92.30015 36841 ft 441 kts 115°
2026-04-30 21:46 8.43497 92.35628 36842 ft 441 kts 115°
2026-04-30 21:46 8.40988 92.41282 36839 ft 441 kts 115°
2026-04-30 21:47 8.38478 92.46933 36839 ft 441 kts 115°
2026-04-30 21:47 8.35967 92.52582 36832 ft 440 kts 115°
2026-04-30 21:48 8.33459 92.58224 36831 ft 440 kts 115°
2026-04-30 21:48 8.30953 92.63858 36828 ft 440 kts 115°
2026-04-30 21:49 8.28443 92.69498 36828 ft 440 kts 115°
2026-04-30 21:49 8.25938 92.75133 36834 ft 440 kts 115°
2026-04-30 21:50 8.23432 92.80761 36847 ft 439 kts 115°
2026-04-30 21:50 8.20924 92.86388 36851 ft 439 kts 115°
2026-04-30 21:51 8.18423 92.92003 36850 ft 438 kts 115°
2026-04-30 21:51 8.15938 92.97571 36851 ft 438 kts 115°
2026-04-30 21:52 8.13439 93.03177 36843 ft 438 kts 115°
2026-04-30 21:52 8.10942 93.08776 36840 ft 437 kts 115°
2026-04-30 21:53 8.08448 93.14364 36841 ft 437 kts 115°
2026-04-30 21:53 8.05954 93.19946 36836 ft 436 kts 115°
2026-04-30 21:54 8.03461 93.25527 36828 ft 436 kts 115°
2026-04-30 21:54 8.00970 93.31094 36827 ft 435 kts 115°
2026-04-30 21:55 7.98479 93.36664 36826 ft 434 kts 115°
2026-04-30 21:55 7.96018 93.42168 36827 ft 433 kts 115°
2026-04-30 21:56 7.93540 93.47702 36824 ft 433 kts 115°
2026-04-30 21:56 7.91070 93.53237 36826 ft 433 kts 115°
2026-04-30 21:57 7.88615 93.58775 36831 ft 433 kts 115°
2026-04-30 21:57 7.86154 93.64318 36825 ft 433 kts 115°
2026-04-30 21:58 7.83693 93.69856 36830 ft 432 kts 115°
2026-04-30 21:58 7.81232 93.75391 36829 ft 432 kts 115°
2026-04-30 21:59 7.78774 93.80916 36827 ft 432 kts 115°
2026-04-30 22:00 7.75087 93.89207 36826 ft 432 kts 115°
2026-04-30 22:00 7.71395 93.97497 36834 ft 432 kts 115°
2026-04-30 22:01 7.68935 94.03019 36829 ft 432 kts 115°
2026-04-30 22:01 7.66492 94.08508 36832 ft 432 kts 115°
2026-04-30 22:02 7.64030 94.14031 36830 ft 432 kts 115°
2026-04-30 22:02 7.61565 94.19552 36829 ft 432 kts 115°
2026-04-30 22:03 7.59102 94.25073 36828 ft 432 kts 115°
2026-04-30 22:03 7.56638 94.30591 36826 ft 431 kts 115°
2026-04-30 22:04 7.54178 94.36102 36833 ft 431 kts 115°
2026-04-30 22:05 7.50397 94.44338 36828 ft 431 kts 117°
2026-04-30 22:05 7.47783 94.49725 36832 ft 431 kts 117°
2026-04-30 22:06 7.45148 94.55153 36833 ft 431 kts 117°
2026-04-30 22:06 7.41195 94.63291 36827 ft 431 kts 117°
2026-04-30 22:07 7.38560 94.68717 36829 ft 431 kts 117°
2026-04-30 22:07 7.35925 94.74140 36829 ft 431 kts 117°
2026-04-30 22:08 7.33289 94.79550 36831 ft 430 kts 117°
2026-04-30 22:08 7.30654 94.84961 36831 ft 430 kts 117°
2026-04-30 22:09 7.28021 94.90374 36830 ft 430 kts 117°
2026-04-30 22:09 7.25404 94.95748 36828 ft 430 kts 117°
2026-04-30 22:10 7.22771 95.01156 36830 ft 430 kts 117°
2026-04-30 22:10 7.20139 95.06561 36831 ft 429 kts 117°
2026-04-30 22:11 7.16194 95.14656 36832 ft 429 kts 117°
2026-04-30 22:12 7.13560 95.20057 36836 ft 429 kts 117°
2026-04-30 22:12 7.10930 95.25451 36822 ft 429 kts 117°
2026-04-30 22:13 7.08297 95.30845 36824 ft 429 kts 117°
2026-04-30 22:13 7.05667 95.36236 36832 ft 429 kts 117°
2026-04-30 22:14 7.03034 95.41630 36820 ft 429 kts 117°
2026-04-30 22:14 7.00399 95.47026 36829 ft 429 kts 117°
2026-04-30 22:15 6.97766 95.52410 36831 ft 429 kts 117°
2026-04-30 22:15 6.95580 95.56885 36826 ft 429 kts 117°
2026-04-30 22:16 6.92946 95.62268 36819 ft 429 kts 117°
2026-04-30 22:17 6.87695 95.73007 36822 ft 428 kts 117°
2026-04-30 22:17 6.83746 95.81077 36817 ft 428 kts 117°
2026-04-30 22:18 6.79798 95.89138 36818 ft 428 kts 117°
2026-04-30 22:19 6.75852 95.97194 36831 ft 428 kts 117°
2026-04-30 22:20 6.71912 96.05232 36819 ft 427 kts 117°
2026-04-30 22:20 6.67975 96.13266 36823 ft 426 kts 117°
2026-04-30 22:21 6.65352 96.18615 36818 ft 426 kts 117°
2026-04-30 22:21 6.62731 96.23961 36822 ft 426 kts 117°
2026-04-30 22:22 6.60111 96.29299 36818 ft 426 kts 117°
2026-04-30 22:22 6.57491 96.34638 36814 ft 426 kts 117°
2026-04-30 22:23 6.54871 96.39975 36822 ft 426 kts 117°
2026-04-30 22:23 6.52266 96.45280 36818 ft 426 kts 117°
2026-04-30 22:24 6.49900 96.50729 36822 ft 427 kts 108°
2026-04-30 22:24 6.48215 96.56458 36822 ft 427 kts 107°
2026-04-30 22:25 6.46548 96.62201 36819 ft 427 kts 107°
2026-04-30 22:25 6.44870 96.67938 36819 ft 427 kts 107°
2026-04-30 22:26 6.42349 96.76533 36819 ft 427 kts 107°
2026-04-30 22:27 6.40669 96.82261 36830 ft 427 kts 107°
2026-04-30 22:27 6.38157 96.90820 36817 ft 427 kts 107°
2026-04-30 22:28 6.35635 96.99412 36822 ft 427 kts 107°
2026-04-30 22:29 6.32269 97.10863 36821 ft 427 kts 107°
2026-04-30 22:31 6.26371 97.30900 36818 ft 427 kts 107°
2026-04-30 22:32 6.22169 97.45163 36818 ft 427 kts 107°
2026-04-30 22:33 6.17441 97.59250 36821 ft 425 kts 122°
2026-04-30 22:35 6.07863 97.70571 36820 ft 425 kts 131°
2026-04-30 22:36 5.98174 97.81803 36821 ft 425 kts 131°
2026-04-30 22:37 5.90462 97.90742 36823 ft 425 kts 131°
2026-04-30 22:38 5.82718 97.99711 36822 ft 425 kts 131°
2026-04-30 22:39 5.76909 98.06429 36821 ft 425 kts 131°
2026-04-30 22:40 5.65295 98.19871 36819 ft 424 kts 131°
2026-04-30 22:41 5.55613 98.31066 36819 ft 424 kts 131°
2026-04-30 22:43 5.43999 98.44490 36821 ft 426 kts 131°
2026-04-30 22:44 5.36231 98.53463 36821 ft 426 kts 130°
2026-04-30 22:45 5.24623 98.66865 36829 ft 425 kts 130°
2026-04-30 22:47 5.12969 98.80309 36831 ft 425 kts 130°
2026-04-30 22:48 5.05244 98.89224 36828 ft 425 kts 130°
2026-04-30 22:49 4.93605 99.02643 36832 ft 425 kts 130°
2026-04-30 22:51 4.81955 99.16069 36835 ft 424 kts 130°
2026-04-30 22:52 4.76162 99.22736 36834 ft 424 kts 130°
2026-04-30 22:53 4.68415 99.31654 36833 ft 424 kts 130°
2026-04-30 22:53 4.62600 99.38340 36834 ft 424 kts 130°
2026-04-30 22:55 4.52932 99.49462 36834 ft 423 kts 130°
2026-04-30 22:56 4.44886 99.58092 36830 ft 424 kts 133°
2026-04-30 22:57 4.34600 99.68605 36827 ft 423 kts 133°
2026-04-30 22:58 4.26368 99.77020 36818 ft 423 kts 133°
2026-04-30 22:59 4.14027 99.89630 36819 ft 422 kts 133°